LRTC Weather Reports


time (UTC)temp
C
wind
direction
speed
KPH
gust
KPH
rain 1hr
cm
rain 24hr
cm
rain mn
cm
humidity
%
barometer
mb
20260503013344 2 330 14.5 0.0 0.00 0.00 0.00 93 1021.0
20260503011844 2 340 14.5 0.0 0.00 0.00 0.00 93 1021.0
20260503010345 2 340 14.5 0.0 0.00 0.00 0.00 93 1021.0
20260503003344 2 340 9.7 0.0 0.00 0.00 0.00 87 1021.0
20260503001844 1 1.6 0.0 0.00 0.00 0.00 100 1022.0
20260503000344 1 1.6 0.0 0.00 0.00 0.00 100 1022.0
20260502234844 2 3.2 0.0 0.00 0.00 0.00 81 1022.0
20260502233344 2 3.2 0.0 0.00 0.00 0.00 81 1022.0
20260502231845 1 1.6 0.0 0.00 0.00 0.00 93 1022.0
20260502230345 1 1.6 0.0 0.00 0.00 0.00 93 1022.0
20260502223344 2 340 4.8 0.0 0.00 0.00 0.00 81 1022.0
20260502221844 2 310 4.8 0.0 0.00 0.00 0.00 87 1022.0
20260502220344 2 310 4.8 0.0 0.00 0.00 0.00 87 1022.0
20260502214844 2 310 8.0 0.0 0.00 0.00 0.00 87 1022.0
20260502213345 2 310 8.0 0.0 0.00 0.00 0.00 87 1022.0
20260502211844 5 330 9.7 0.0 0.00 0.00 0.00 76 1022.0
20260502210344 5 330 9.7 0.0 0.00 0.00 0.00 76 1022.0
20260502203344 6 360 4.8 0.0 0.00 0.00 0.00 71 1022.0
20260502201845 6 360 8.0 0.0 0.00 0.00 0.00 71 1023.0
20260502200344 6 360 8.0 0.0 0.00 0.00 0.00 71 1023.0
20260502194844 5 10 8.0 0.0 0.00 0.00 0.00 70 1023.0
20260502193345 5 10 8.0 0.0 0.00 0.00 0.00 70 1023.0
20260502191844 5 20 8.0 0.0 0.00 0.00 0.00 70 1023.0
20260502190344 5 20 8.0 0.0 0.00 0.00 0.00 70 1023.0
20260502184844 5 20 8.0 0.0 0.00 0.00 0.00 70 1022.0
20260502183344 5 20 8.0 0.0 0.00 0.00 0.00 70 1022.0
20260502181845 6 50 8.0 0.0 0.00 0.00 0.00 71 1022.0
20260502180344 6 50 8.0 0.0 0.00 0.00 0.00 71 1022.0
20260502170344 7 80 4.8 0.0 0.00 0.00 0.00 71 1022.0
20260502163344 8 90 9.7 0.0 0.00 0.00 0.00 66 1022.0
20260502161844 10 90 11.3 0.0 0.00 0.00 0.00 62 1022.0
20260502160345 10 90 11.3 0.0 0.00 0.00 0.00 62 1022.0
20260502151844 11 70 14.5 0.0 0.00 0.00 0.00 58 1022.0
20260502150344 11 70 14.5 0.0 0.00 0.00 0.00 58 1022.0
20260502130345 12 20 20.9 0.0 0.00 0.00 0.00 47 1022.0
20260502123344 12 90 17.7 0.0 0.00 0.00 0.00 58 1022.0
20260502121844 8 70 24.1 0.0 0.00 0.00 0.00 71 1022.0
20260502120352 8 70 24.1 0.0 0.00 0.00 0.00 71 1022.0
20260502113344 11 12.9 0.0 0.00 0.00 0.00 58 1022.0
20260502111844 12 70 17.7 0.0 0.00 0.00 0.00 51 1022.0
20260502110344 12 70 17.7 0.0 0.00 0.00 0.00 51 1022.0
20260502104844 12 50 17.7 0.0 0.00 0.00 0.00 51 1022.0
20260502103345 12 50 17.7 0.0 0.00 0.00 0.00 51 1022.0
20260502101841 12 40 27.4 0.0 0.00 0.00 0.00 47 1022.0
20260502100344 12 40 27.4 0.0 0.00 0.00 0.00 47 1022.0
20260502090344 12 340 17.7 0.0 0.00 0.00 0.00 55 1022.0
20260502070345 10 350 16.1 0.0 0.00 0.00 0.00 62 1022.0
20260502064844 10 330 8.0 0.0 0.00 0.00 0.00 67 1022.0
20260502063344 10 330 8.0 0.0 0.00 0.00 0.00 67 1022.0
20260502061844 7 3.2 0.0 0.00 0.00 0.00 66 1022.0
20260502060345 7 3.2 0.0 0.00 0.00 0.00 66 1022.0
20260502054844 7 240 1.6 0.0 0.00 0.00 0.00 76 1022.0
20260502053345 7 240 1.6 0.0 0.00 0.00 0.00 76 1022.0
20260502051844 6 3.2 0.0 0.00 0.00 0.00 76 1022.0
20260502050344 6 3.2 0.0 0.00 0.00 0.00 76 1022.0
20260502044844 5 260 4.8 0.0 0.00 0.00 0.00 76 1022.0
20260502043344 5 260 4.8 0.0 0.00 0.00 0.00 76 1022.0
20260502041844 3 3.2 0.0 0.00 0.00 0.00 81 1022.0
20260502040344 3 3.2 0.0 0.00 0.00 0.00 81 1022.0
20260502035005 3 0 0.0 0.0 0.00 0.00 0.00 75 1022.0
20260502033344 3 0 0.0 0.0 0.00 0.00 0.00 75 1022.0
20260502031844 3 330 4.8 0.0 0.00 0.00 0.00 81 1022.0
20260502030344 3 330 4.8 0.0 0.00 0.00 0.00 81 1022.0
20260502024844 5 290 4.8 0.0 0.00 0.00 0.00 70 1022.0
20260502023344 5 290 4.8 0.0 0.00 0.00 0.00 70 1022.0
20260502021845 3 350 9.7 0.0 0.00 0.00 0.00 75 1022.0
20260502020344 3 350 9.7 0.0 0.00 0.00 0.00 75 1022.0
20260502014845 2 350 8.0 0.0 0.00 0.00 0.00 81 1023.0